When you browse on this site, cookies collect data to enhance your experience and personalize the content and advertising you see.
Visit our Privacy Policy to learn more. By continuing to use the site, you agree to this use of cookies and data.
  • In Österreich
  • Länderverzeichnis
  • Für 7 Tage
  • Wassertemperatur
  • Wetterkarte
  • News
  • Widgets
  • user-avatar
    Anmelden

    Stündliche Wetter Doxey

    Heute, 23 August, Freitag

    Zeit Temperatur Niederschläge Wind Luftdruck Luftfeuchtigkeit
    00:00 +18°C° 1.2 mm 1 m/S 595 mmHg 89%
    01:00 +16°C° 1.2 mm 1 m/S 595 mmHg 90%
    02:00 +16°C° 1.2 mm 1 m/S 595 mmHg 91%
    03:00 +16°C° 0.7 mm 1 m/S 595 mmHg 92%
    04:00 +15°C° 0.7 mm 1 m/S 595 mmHg 92%
    05:00 +15°C° 0 mm 1 m/S 595 mmHg 89%
    06:00 +16°C° 0 mm 1 m/S 595 mmHg 83%
    07:00 +19°C° 0 mm 1 m/S 596 mmHg 78%
    08:00 +20°C° 0 mm 1 m/S 597 mmHg 73%
    09:00 +22°C° 0.2 mm 1 m/S 597 mmHg 68%
    10:00 +23°C° 0.2 mm 2 m/S 598 mmHg 62%
    11:00 +25°C° 0.2 mm 2 m/S 598 mmHg 57%
    12:00 +25°C° 0.8 mm 3 m/S 597 mmHg 57%
    13:00 +25°C° 0.8 mm 3 m/S 597 mmHg 57%
    14:00 +26°C° 0.8 mm 4 m/S 597 mmHg 57%
    15:00 +25°C° 1.5 mm 3 m/S 596 mmHg 63%
    16:00 +22°C° 1.5 mm 3 m/S 596 mmHg 68%
    17:00 +21°C° 1.5 mm 2 m/S 595 mmHg 74%
    18:00 +20°C° 1.6 mm 3 m/S 595 mmHg 78%
    19:00 +18°C° 1.6 mm 3 m/S 595 mmHg 83%
    20:00 +15°C° 1.6 mm 4 m/S 595 mmHg 87%
    21:00 +16°C° 0.1 mm 3 m/S 595 mmHg 87%
    22:00 +16°C° 0.1 mm 2 m/S 595 mmHg 88%
    23:00 +15°C° 0.1 mm 2 m/S 595 mmHg 88%

    Morgen, 24 August, Samstag

    Zeit Temperatur Niederschläge Wind Luftdruck Luftfeuchtigkeit
    00:00 +15°C° 0 mm 1 m/S 595 mmHg 87%
    01:00 +15°C° 0 mm 1 m/S 594 mmHg 87%
    02:00 +15°C° 0 mm 1 m/S 594 mmHg 86%
    03:00 +15°C° 0 mm 1 m/S 594 mmHg 86%
    04:00 +15°C° 0 mm 1 m/S 594 mmHg 85%
    05:00 +15°C° 0 mm 1 m/S 594 mmHg 85%
    06:00 +16°C° 0 mm 1 m/S 595 mmHg 80%
    07:00 +19°C° 0 mm 1 m/S 596 mmHg 74%
    08:00 +20°C° 0 mm 1 m/S 597 mmHg 69%
    09:00 +22°C° 0.1 mm 1 m/S 597 mmHg 65%
    10:00 +23°C° 0.1 mm 1 m/S 598 mmHg 61%
    11:00 +25°C° 0.1 mm 1 m/S 598 mmHg 56%
    12:00 +25°C° 0.9 mm 1 m/S 598 mmHg 55%
    13:00 +26°C° 0.9 mm 2 m/S 597 mmHg 54%
    14:00 +26°C° 0.9 mm 2 m/S 597 mmHg 54%
    15:00 +25°C° 1.5 mm 2 m/S 596 mmHg 59%
    16:00 +24°C° 1.5 mm 2 m/S 596 mmHg 65%
    17:00 +23°C° 1.5 mm 2 m/S 595 mmHg 71%
    18:00 +20°C° 1.5 mm 2 m/S 595 mmHg 75%
    19:00 +19°C° 1.5 mm 2 m/S 596 mmHg 80%
    20:00 +18°C° 1.5 mm 2 m/S 596 mmHg 85%
    21:00 +18°C° 0.2 mm 1 m/S 596 mmHg 85%
    22:00 +18°C° 0.2 mm 1 m/S 595 mmHg 85%
    23:00 +16°C° 0.2 mm 0 m/S 595 mmHg 86%

    übermorgen, 25 August, Sonntag

    Zeit Temperatur Niederschläge Wind Luftdruck Luftfeuchtigkeit
    00:00 +15°C° 0 mm 0 m/S 595 mmHg 85%
    01:00 +15°C° 0 mm 0 m/S 595 mmHg 85%
    02:00 +15°C° 0 mm 0 m/S 594 mmHg 84%
    03:00 +15°C° 0 mm 0 m/S 594 mmHg 85%
    04:00 +14°C° 0 mm 0 m/S 594 mmHg 85%
    05:00 +14°C° 0 mm 0 m/S 594 mmHg 85%
    06:00 +18°C° 0 mm 1 m/S 595 mmHg 79%
    07:00 +19°C° 0 mm 1 m/S 596 mmHg 73%
    08:00 +21°C° 0 mm 1 m/S 597 mmHg 67%
    09:00 +23°C° 0 mm 1 m/S 597 mmHg 62%
    10:00 +24°C° 0 mm 1 m/S 597 mmHg 56%
    11:00 +26°C° 0 mm 1 m/S 598 mmHg 51%
    12:00 +26°C° 0.4 mm 2 m/S 597 mmHg 50%
    13:00 +27°C° 0.4 mm 2 m/S 597 mmHg 49%
    14:00 +27°C° 0.4 mm 3 m/S 597 mmHg 49%
    15:00 +26°C° 0.5 mm 3 m/S 596 mmHg 53%
    16:00 +26°C° 0.5 mm 2 m/S 596 mmHg 58%
    17:00 +25°C° 0.5 mm 2 m/S 596 mmHg 63%
    18:00 +23°C° 0.8 mm 2 m/S 595 mmHg 69%
    19:00 +21°C° 0.8 mm 1 m/S 595 mmHg 75%
    20:00 +20°C° 0.8 mm 1 m/S 595 mmHg 81%
    21:00 +19°C° 0.6 mm 1 m/S 595 mmHg 82%
    22:00 +19°C° 0.6 mm 1 m/S 595 mmHg 83%
    23:00 +18°C° 0.6 mm 1 m/S 595 mmHg 84%

    26 August, Montag

    Zeit Temperatur Niederschläge Wind Luftdruck Luftfeuchtigkeit
    00:00 +18°C° 1.1 mm 1 m/S 594 mmHg 86%
    01:00 +18°C° 1.1 mm 1 m/S 594 mmHg 87%
    02:00 +16°C° 1.1 mm 1 m/S 593 mmHg 89%
    03:00 +16°C° 0.3 mm 1 m/S 593 mmHg 89%
    04:00 +16°C° 0.3 mm 1 m/S 593 mmHg 89%
    05:00 +15°C° 0.3 mm 1 m/S 593 mmHg 90%
    06:00 +16°C° 0 mm 0 m/S 594 mmHg 84%
    07:00 +17°C° 0 mm 0 m/S 595 mmHg 78%
    08:00 +19°C° 0 mm 0 m/S 596 mmHg 72%
    09:00 +20°C° 0.1 mm 0 m/S 596 mmHg 66%
    10:00 +22°C° 0.1 mm 0 m/S 596 mmHg 61%
    11:00 +25°C° 0.1 mm 1 m/S 596 mmHg 55%
    12:00 +26°C° 0.6 mm 1 m/S 596 mmHg 53%
    13:00 +26°C° 0.6 mm 1 m/S 596 mmHg 52%
    14:00 +26°C° 0.6 mm 2 m/S 595 mmHg 51%
    15:00 +25°C° 0.7 mm 2 m/S 595 mmHg 57%
    16:00 +24°C° 0.7 mm 2 m/S 594 mmHg 63%
    17:00 +24°C° 0.7 mm 3 m/S 594 mmHg 69%
    18:00 +21°C° 0.9 mm 2 m/S 594 mmHg 73%
    19:00 +20°C° 0.9 mm 2 m/S 594 mmHg 78%
    20:00 +19°C° 0.9 mm 1 m/S 594 mmHg 82%
    21:00 +19°C° 0.6 mm 1 m/S 594 mmHg 84%
    22:00 +18°C° 0.6 mm 1 m/S 594 mmHg 85%
    23:00 +16°C° 0.6 mm 1 m/S 594 mmHg 87%

    27 August, Dienstag

    Zeit Temperatur Niederschläge Wind Luftdruck Luftfeuchtigkeit
    00:00 +16°C° 0.1 mm 1 m/S 594 mmHg 87%
    01:00 +15°C° 0.1 mm 0 m/S 593 mmHg 88%
    02:00 +14°C° 0.1 mm 0 m/S 593 mmHg 88%
    03:00 +14°C° 0 mm 0 m/S 593 mmHg 89%
    04:00 +14°C° 0 mm 0 m/S 593 mmHg 89%
    05:00 +13°C° 0 mm 0 m/S 593 mmHg 89%
    06:00 +15°C° 0 mm 0 m/S 594 mmHg 83%
    07:00 +17°C° 0 mm 0 m/S 595 mmHg 77%
    08:00 +19°C° 0 mm 0 m/S 596 mmHg 71%
    09:00 +20°C° 0.3 mm 0 m/S 596 mmHg 66%
    10:00 +23°C° 0.3 mm 1 m/S 596 mmHg 61%
    11:00 +25°C° 0.3 mm 1 m/S 596 mmHg 56%
    12:00 +25°C° 0.6 mm 2 m/S 596 mmHg 53%
    13:00 +26°C° 0.6 mm 2 m/S 596 mmHg 51%
    14:00 +26°C° 0.6 mm 3 m/S 596 mmHg 49%
    15:00 +25°C° 0.8 mm 3 m/S 595 mmHg 56%
    16:00 +24°C° 0.8 mm 3 m/S 595 mmHg 64%
    17:00 +21°C° 0.8 mm 3 m/S 594 mmHg 72%
    18:00 +20°C° 0.5 mm 2 m/S 595 mmHg 75%
    19:00 +19°C° 0.5 mm 2 m/S 595 mmHg 79%
    20:00 +19°C° 0.5 mm 1 m/S 595 mmHg 82%
    21:00 +18°C° 0.7 mm 1 m/S 595 mmHg 83%
    22:00 +18°C° 0.7 mm 1 m/S 595 mmHg 84%
    23:00 +18°C° 0.7 mm 1 m/S 595 mmHg 85%

    28 August, Mittwoch

    Zeit Temperatur Niederschläge Wind Luftdruck Luftfeuchtigkeit
    00:00 +16°C° 0.3 mm 1 m/S 595 mmHg 86%
    01:00 +16°C° 0.3 mm 1 m/S 594 mmHg 86%
    02:00 +14°C° 0.3 mm 0 m/S 594 mmHg 87%
    03:00 +14°C° 0 mm 0 m/S 594 mmHg 87%
    04:00 +14°C° 0 mm 0 m/S 594 mmHg 87%
    05:00 +13°C° 0 mm 0 m/S 594 mmHg 87%
    06:00 +15°C° 0 mm 0 m/S 595 mmHg 81%
    07:00 +17°C° 0 mm 0 m/S 596 mmHg 75%
    08:00 +18°C° 0 mm 0 m/S 597 mmHg 69%
    09:00 +22°C° 0.6 mm 1 m/S 597 mmHg 64%
    10:00 +23°C° 0.6 mm 1 m/S 598 mmHg 60%
    11:00 +24°C° 0.6 mm 2 m/S 598 mmHg 55%
    12:00 +25°C° 0.7 mm 3 m/S 597 mmHg 56%
    13:00 +25°C° 0.7 mm 3 m/S 597 mmHg 56%
    14:00 +25°C° 0.7 mm 4 m/S 597 mmHg 57%
    15:00 +23°C° 2.7 mm 4 m/S 596 mmHg 65%
    16:00 +21°C° 2.7 mm 4 m/S 596 mmHg 73%
    17:00 +20°C° 2.7 mm 4 m/S 595 mmHg 81%
    18:00 +19°C° 1.1 mm 3 m/S 595 mmHg 83%
    19:00 +18°C° 1.1 mm 3 m/S 596 mmHg 86%
    20:00 +17°C° 1.1 mm 2 m/S 596 mmHg 88%
    21:00 +16°C° 0.3 mm 2 m/S 596 mmHg 89%
    22:00 +16°C° 0.3 mm 1 m/S 596 mmHg 89%
    23:00 +15°C° 0.3 mm 1 m/S 596 mmHg 89%
    Mehr zeigen